[Date Prev][Date Next][Thread Prev][Thread Next] - [Date Index][Thread Index][Author Index]

2 Line ISS Keps 12-19



ISS
1 25544U 98067A   05353.01527874  .00011374  00000-0  85173-4 0  9747
2 25544 051.6461 033.6182 0010554 056.3858 029.9475 15.73164812404774
----
Via the sarex mailing list at AMSAT.ORG courtesy of AMSAT-NA.
To unsubscribe, send "unsubscribe sarex" to Majordomo@amsat.org



AMSAT Top AMSAT Home